Tracking 20715 objects as of 27-May-2020
HD Live streaming from Space Station
objects crossing your sky now

FENGYUN 1C DEB

Track FENGYUN 1C DEB now!
10-day predictions


NORAD ID: 33647
Int'l Code: 1999-025DEG
Perigee: 780.8 km
Apogee: 1,185.3 km
Inclination: 98.2 °
Period: 104.6 minutes
Semi major axis: 7354 km
RCS: 0.0163 m2 (small)
Launch date: May 10, 1999
Source: People's Republic of China (PRC)
Launch site: Taiyaun Space Center, China (TSC)

Note: This is SATELLITE DEBRIS
aabbcc
Your satellite tracking list
Your tracking list is empty




NASA's NSSDC Master Catalog

Two Line Element Set (TLE):
1 33647U 99025DEG 20148.04044869  .00000979  00000-0  78499-3 0  9993
2 33647  98.2365 235.7726 0274993 244.0564 113.2019 13.76615466622595
Source of the keplerian elements: AFSPC